Portada
METAR-TAF:

METAR-TAF

Aeroports :

Mount Gambier, Austràlia

latitud: 37-44-44S, longitud: 140-47-07E, altitud: 65 m

Observació

L'informe es va fer fa 1 hora i 19 minuts, a les 23:00 UTC
Vent 11 kt del Oest
Temperatura 15°C
Humitat 63%
Pressió 1017 hPa
Visibilitat 10 km o més
Núvols disperses a una alçada de 2900 ft

METAR: YMTG 212300Z AUTO 27011KT 9999 // SCT029 15/08 Q1017

Hora: 10:49 (00:19 UTC)


TAF: manca

Observacions i pronòstics meteorològics de més de 4000 aeroports (METAR i TAF).

Les estacions disponibles són els punts grocs i vermells al mapa.

Posi el ratolí al punt desitjat per veure el nom de l'estació.

Feu clic per veure les observacions i els pronòstics meteorològics.

Per canviar el mapa: feu clic els botons verds amb una creu de color negre per apropar; al botó verd amb un guió per allunyar la imatge; o en les fletxes verdes per a mapes adjacents.


METAR-TAF: